Miscellaneous Local Product
Issued by NWS Hastings, NE

Home | Current Version | Previous Version | Text Only | Print | Product List | Glossary On
Versions: 1 2 3 4 5 6 7 8 9 10 11 12 13 14 15 16 17 18 19 20 21 22 23 24 25 26 27 28 29 30 31 32 33 34 35 36 37 38 39 40 41 42 43 44 45 46 47 48 49 50
000
AXUS43 KGID 182102
MISGRI

GID CWA HOURLY WEATHER ROUNDUP
NATIONAL WEATHER SERVICE HASTINGS NE
300 PM CST SUN FEB 18 2018

NOTE: "FAIR" INDICATES FEW OR NO CLOUDS BELOW 12,000 FEET WITH NO
SIGNIFICANT WEATHER AND/OR OBSTRUCTIONS TO VISIBILITY.

...SOUTH CENTRAL NEBRASKA...

CITY           SKY/WX    TMP DP  RH WIND       PRES   REMARKS
GRAND ISLAND   CLOUDY    58  33  39 S22G32    29.49F
KEARNEY        CLOUDY    57  32  38 S23       29.47F
HASTINGS       CLOUDY    58  31  35 S16G31    29.50F
ORD            MOSUNNY   52  32  46 S9        29.49F
YORK           CLOUDY    57  36  44 SW23G33   29.52S
AURORA         CLOUDY    58  33  39 S18G26    29.51S
LEXINGTON      SUNNY     56  32  39 S12       29.46F
HOLDREGE       CLOUDY    59  32  36 S21       29.46F
HEBRON         CLOUDY    61  38  43 S25G36    29.54F

...NEBRASKA PANHANDLE...

CITY           SKY/WX    TMP DP  RH WIND       PRES   REMARKS
CHADRON        CLOUDY    24  19  81 NE25G31   29.64R WCI   8
ALLIANCE       MOSUNNY   42  30  62 NE28G33   29.49R
SCOTTSBLUFF    MOSUNNY   53  28  38 NE22      29.43F
SIDNEY         MOSUNNY   67  13  12 S10       29.41F

...WESTERN AND NORTH CENTRAL NEBRASKA...

CITY           SKY/WX    TMP DP  RH WIND       PRES   REMARKS
VALENTINE      PTSUNNY   31  22  69 N21G33    29.61R WCI  18
AINSWORTH      PTSUNNY   35  29  77 N22G29    29.58R WCI  24
ONEILL         CLOUDY    41  31  66 NW20G25   29.55R
BROKEN BOW     MOSUNNY   53  32  44 VRB3      29.48S
IMPERIAL       SUNNY     61  30  31 E10       29.43S
NORTH PLATTE   MOSUNNY   54  30  40 S5        29.47R
MCCOOK         SUNNY     61  32  33 S10       29.44F

...EASTERN NEBRASKA...

CITY           SKY/WX    TMP DP  RH WIND       PRES   REMARKS
NORFOLK        CLOUDY    49  33  54 SW12      29.53F
SO SIOUX CITY  MOSUNNY   45  34  65 SE6       29.57F
TEKAMAH        CLOUDY    52  35  52 S28G38    29.56F
COLUMBUS       CLOUDY    52  35  52 SW8       29.54S
ALBION         SUNNY     52  33  48 SW12      29.52F
OMAHA EPPLEY   CLOUDY    55  30  38 S22G40    29.58F
OFFUTT AFB     CLOUDY    56  31  39 S17G28    29.58F
MILLARD        CLOUDY    57  33  39 S16G25    29.59S
LINCOLN        CLOUDY    57  36  45 S28G48    29.55F
NEBRASKA CITY  PTSUNNY   56  32  40 S24G43    29.61F
BEATRICE       MOSUNNY   58  38  46 S25G36    29.58F
FALLS CITY     CLOUDY    56  28  34 S31G44    29.65F

...NORTHERN KANSAS...

CITY           SKY/WX    TMP DP  RH WIND       PRES   REMARKS
GOODLAND       MOSUNNY   70  11  10 W22G36    29.43F
HILL CITY      CLOUDY    70  27  20 S18G28    29.47F
NORTON         CLEAR     68  19  15 S14G23    29.45F
PHILLIPSBURG   SUNNY     66  28  24 S20       29.48F
SMITH CENTER   SUNNY     66  34  30 S22G28    29.50F
BELOIT         SUNNY     63  37  39 S23G33    29.55F
HAYS           CLOUDY    72  34  24 S29G38    29.49F
RUSSELL        CLOUDY    72  40  31 S29G39    29.51F
CONCORDIA      MOSUNNY   60  40  47 S22G39    29.56F
SALINA         MOSUNNY   63  42  46 S28G40    29.62F
TOPEKA         MOSUNNY   57  36  45 S23G38    29.72F



USA.gov is the U.S. government's official web portal to all federal, state and local government web resources and services.